#Datum;Uhrzeit;WR;Pac;DaySum;Status;WR;Pac;DaySum;Status;Pdc1;Udc;Temp;WR;Pac;DaySum;Status;Pdc1;Udc;Temp;WR;Pac;DaySum;Status;Pdc1;Udc;Temp;WR;Pac;DaySum;Status;Pdc1;Pdc2;Udc1;Udc2;Temp;WR;Pac;DaySum;Status;Pdc1;Pdc2;Udc1;Udc2;Temp;WR;Pac;DaySum;Status;Pdc1;Udc;Temp;WR;Pac;DaySum;Status;Pdc1;Udc;Temp;WR;Pac;DaySum;Status;Pdc1;Udc;Temp
30.10.18;23:55:00;1;434;9932;0;2;0;12021;0;0;0;0;3;0;8209;0;0;0;0;4;0;12675;0;0;0;0;5;0;36883;0;0;0;0;0;0;6;0;28488;0;0;0;0;0;0;7;0;21718;0;0;0;0;8;0;21306;0;0;0;0;9;0;11773;0;0;0;0
30.10.18;23:50:00;1;471;9896;0;2;0;12021;0;0;0;0;3;0;8209;0;0;0;0;4;0;12675;0;0;0;0;5;0;36883;0;0;0;0;0;0;6;0;28488;0;0;0;0;0;0;7;0;21718;0;0;0;0;8;0;21306;0;0;0;0;9;0;11773;0;0;0;0
30.10.18;23:45:00;1;480;9856;0;2;0;12021;0;0;0;0;3;0;8209;0;0;0;0;4;0;12675;0;0;0;0;5;0;36883;0;0;0;0;0;0;6;0;28488;0;0;0;0;0;0;7;0;21718;0;0;0;0;8;0;21306;0;0;0;0;9;0;11773;0;0;0;0
30.10.18;23:40:00;1;482;9816;0;2;0;12021;0;0;0;0;3;0;8209;0;0;0;0;4;0;12675;0;0;0;0;5;0;36883;0;0;0;0;0;0;6;0;28488;0;0;0;0;0;0;7;0;21718;0;0;0;0;8;0;21306;0;0;0;0;9;0;11773;0;0;0;0
30.10.18;23:35:00;1;412;9776;0;2;0;12021;0;0;0;0;3;0;8209;0;0;0;0;4;0;12675;0;0;0;0;5;0;36883;0;0;0;0;0;0;6;0;28488;0;0;0;0;0;0;7;0;21718;0;0;0;0;8;0;21306;0;0;0;0;9;0;11773;0;0;0;0
30.10.18;23:30:00;1;415;9742;0;2;0;12021;0;0;0;0;3;0;8209;0;0;0;0;4;0;12675;0;0;0;0;5;0;36883;0;0;0;0;0;0;6;0;28488;0;0;0;0;0;0;7;0;21718;0;0;0;0;8;0;21306;0;0;0;0;9;0;11773;0;0;0;0
30.10.18;23:25:00;1;421;9707;0;2;0;12021;0;0;0;0;3;0;8209;0;0;0;0;4;0;12675;0;0;0;0;5;0;36883;0;0;0;0;0;0;6;0;28488;0;0;0;0;0;0;7;0;21718;0;0;0;0;8;0;21306;0;0;0;0;9;0;11773;0;0;0;0
30.10.18;23:20:00;1;438;9671;0;2;0;12021;0;0;0;0;3;0;8209;0;0;0;0;4;0;12675;0;0;0;0;5;0;36883;0;0;0;0;0;0;6;0;28488;0;0;0;0;0;0;7;0;21718;0;0;0;0;8;0;21306;0;0;0;0;9;0;11773;0;0;0;0
30.10.18;23:15:00;1;413;9634;0;2;0;12021;0;0;0;0;3;0;8209;0;0;0;0;4;0;12675;0;0;0;0;5;0;36883;0;0;0;0;0;0;6;0;28488;0;0;0;0;0;0;7;0;21718;0;0;0;0;8;0;21306;0;0;0;0;9;0;11773;0;0;0;0
30.10.18;23:10:00;1;408;9600;0;2;0;12021;0;0;0;0;3;0;8209;0;0;0;0;4;0;12675;0;0;0;0;5;0;36883;0;0;0;0;0;0;6;0;28488;0;0;0;0;0;0;7;0;21718;0;0;0;0;8;0;21306;0;0;0;0;9;0;11773;0;0;0;0
30.10.18;23:05:00;1;367;9566;0;2;0;12021;0;0;0;0;3;0;8209;0;0;0;0;4;0;12675;0;0;0;0;5;0;36883;0;0;0;0;0;0;6;0;28488;0;0;0;0;0;0;7;0;21718;0;0;0;0;8;0;21306;0;0;0;0;9;0;11773;0;0;0;0
30.10.18;23:00:00;1;367;9535;0;2;0;12021;0;0;0;0;3;0;8209;0;0;0;0;4;0;12675;0;0;0;0;5;0;36883;0;0;0;0;0;0;6;0;28488;0;0;0;0;0;0;7;0;21718;0;0;0;0;8;0;21306;0;0;0;0;9;0;11773;0;0;0;0
30.10.18;22:55:00;1;370;9505;0;2;0;12021;0;0;0;0;3;0;8209;0;0;0;0;4;0;12675;0;0;0;0;5;0;36883;2;0;0;0;0;0;6;0;28488;2;0;0;0;0;0;7;0;21718;0;0;0;0;8;0;21306;0;0;0;0;9;0;11773;0;0;0;0
30.10.18;22:50:00;1;369;9474;0;2;0;12021;0;0;0;0;3;0;8209;0;0;0;0;4;0;12675;0;0;0;0;5;0;36883;2;0;0;0;0;0;6;0;28488;2;0;0;0;0;0;7;0;21718;0;0;0;0;8;0;21306;0;0;0;0;9;0;11773;0;0;0;0
30.10.18;22:45:00;1;368;9443;0;2;0;12021;0;0;0;0;3;0;8209;0;0;0;0;4;0;12675;0;0;0;0;5;0;36883;2;0;0;0;0;0;6;0;28488;2;0;0;0;0;0;7;0;21718;0;0;0;0;8;0;21306;0;0;0;0;9;0;11773;0;0;0;0
30.10.18;22:40:00;1;366;9412;0;2;0;12021;0;0;0;0;3;0;8209;0;0;0;0;4;0;12675;0;0;0;0;5;0;36883;2;0;0;0;0;0;6;0;28488;2;0;0;0;0;0;7;0;21718;0;0;0;0;8;0;21306;0;0;0;0;9;0;11773;0;0;0;0
30.10.18;22:35:00;1;361;9382;0;2;0;12021;0;0;0;0;3;0;8209;0;0;0;0;4;0;12675;0;0;0;0;5;0;36883;2;0;0;0;0;0;6;0;28488;2;0;0;0;0;0;7;0;21718;0;0;0;0;8;0;21306;0;0;0;0;9;0;11773;0;0;0;0
30.10.18;22:30:00;1;379;9352;0;2;0;12021;0;0;0;0;3;0;8209;0;0;0;0;4;0;12675;0;0;0;0;5;0;36883;2;0;0;0;0;0;6;0;28488;2;0;0;0;0;0;7;0;21718;0;0;0;0;8;0;21306;0;0;0;0;9;0;11773;0;0;0;0
30.10.18;22:25:00;1;407;9320;0;2;0;12021;0;0;0;0;3;0;8209;0;0;0;0;4;0;12675;0;0;0;0;5;0;36883;2;0;0;0;0;0;6;0;28488;2;0;0;0;0;0;7;0;21718;0;0;0;0;8;0;21306;0;0;0;0;9;0;11773;0;0;0;0
30.10.18;22:20:00;1;393;9286;0;2;0;12021;0;0;0;0;3;0;8209;0;0;0;0;4;0;12675;0;0;0;0;5;0;36883;2;0;0;0;0;0;6;0;28488;2;0;0;0;0;0;7;0;21718;0;0;0;0;8;0;21306;0;0;0;0;9;0;11773;0;0;0;0
30.10.18;22:15:00;1;340;9254;0;2;0;12021;0;0;0;0;3;0;8209;0;0;0;0;4;0;12675;0;0;0;0;5;0;36883;2;0;0;0;0;0;6;0;28488;2;0;0;0;0;0;7;0;21718;0;0;0;0;8;0;21306;0;0;0;0;9;0;11773;0;0;0;0
30.10.18;22:10:00;1;385;9225;0;2;0;12021;0;0;0;0;3;0;8209;0;0;0;0;4;0;12675;0;0;0;0;5;0;36883;2;0;0;0;0;0;6;0;28488;2;0;0;0;0;0;7;0;21718;0;0;0;0;8;0;21306;0;0;0;0;9;0;11773;0;0;0;0
30.10.18;22:05:00;1;415;9193;0;2;0;12021;0;0;0;0;3;0;8209;0;0;0;0;4;0;12675;0;0;0;0;5;0;36883;2;0;0;0;0;0;6;0;28488;2;0;0;0;0;0;7;0;21718;0;0;0;0;8;0;21306;0;0;0;0;9;0;11773;0;0;0;0
30.10.18;22:00:00;1;423;9158;0;2;0;12021;0;0;0;0;3;0;8209;0;0;0;0;4;0;12675;0;0;0;0;5;0;36883;2;0;0;0;0;0;6;0;28488;2;0;0;0;0;0;7;0;21718;0;0;0;0;8;0;21306;0;0;0;0;9;0;11773;0;0;0;0
30.10.18;21:55:00;1;414;9122;0;2;0;12021;0;0;0;0;3;0;8209;0;0;0;0;4;0;12675;0;0;0;0;5;0;36883;2;0;0;0;0;0;6;0;28488;2;0;0;0;0;0;7;0;21718;0;0;0;0;8;0;21306;0;0;0;0;9;0;11773;0;0;0;0
30.10.18;21:50:00;1;401;9088;0;2;0;12021;0;0;0;0;3;0;8209;0;0;0;0;4;0;12675;0;0;0;0;5;0;36883;2;0;0;0;0;0;6;0;28488;2;0;0;0;0;0;7;0;21718;0;0;0;0;8;0;21306;0;0;0;0;9;0;11773;0;0;0;0
30.10.18;21:45:00;1;426;9053;0;2;0;12021;0;0;0;0;3;0;8209;0;0;0;0;4;0;12675;0;0;0;0;5;0;36883;2;0;0;0;0;0;6;0;28488;2;0;0;0;0;0;7;0;21718;0;0;0;0;8;0;21306;0;0;0;0;9;0;11773;0;0;0;0
30.10.18;21:40:00;1;456;9018;0;2;0;12021;0;0;0;0;3;0;8209;0;0;0;0;4;0;12675;0;0;0;0;5;0;36883;2;0;0;0;0;0;6;0;28488;2;0;0;0;0;0;7;0;21718;0;0;0;0;8;0;21306;0;0;0;0;9;0;11773;0;0;0;0
30.10.18;21:35:00;1;443;8980;0;2;0;12021;0;0;0;0;3;0;8209;0;0;0;0;4;0;12675;0;0;0;0;5;0;36883;2;0;0;0;0;0;6;0;28488;2;0;0;0;0;0;7;0;21718;0;0;0;0;8;0;21306;0;0;0;0;9;0;11773;0;0;0;0
30.10.18;21:30:00;1;400;8944;0;2;0;12021;0;0;0;0;3;0;8209;0;0;0;0;4;0;12675;0;0;0;0;5;0;36883;2;0;0;0;0;0;6;0;28488;2;0;0;0;0;0;7;0;21718;0;0;0;0;8;0;21306;0;0;0;0;9;0;11773;0;0;0;0
30.10.18;21:25:00;1;355;8909;0;2;0;12021;0;0;0;0;3;0;8209;0;0;0;0;4;0;12675;0;0;0;0;5;0;36883;2;0;0;0;0;0;6;0;28488;2;0;0;0;0;0;7;0;21718;0;0;0;0;8;0;21306;0;0;0;0;9;0;11773;0;0;0;0
30.10.18;21:20:00;1;339;8880;0;2;0;12021;0;0;0;0;3;0;8209;0;0;0;0;4;0;12675;0;0;0;0;5;0;36883;2;0;0;0;0;0;6;0;28488;2;0;0;0;0;0;7;0;21718;0;0;0;0;8;0;21306;0;0;0;0;9;0;11773;0;0;0;0
30.10.18;21:15:00;1;342;8851;0;2;0;12021;0;0;0;0;3;0;8209;0;0;0;0;4;0;12675;0;0;0;0;5;0;36883;2;0;0;0;0;0;6;0;28488;2;0;0;0;0;0;7;0;21718;0;0;0;0;8;0;21306;0;0;0;0;9;0;11773;0;0;0;0
30.10.18;21:10:00;1;359;8822;0;2;0;12021;0;0;0;0;3;0;8209;0;0;0;0;4;0;12675;0;0;0;0;5;0;36883;2;0;0;0;0;0;6;0;28488;2;0;0;0;0;0;7;0;21718;0;0;0;0;8;0;21306;0;0;0;0;9;0;11773;0;0;0;0
30.10.18;21:05:00;1;378;8791;0;2;0;12021;0;0;0;0;3;0;8209;0;0;0;0;4;0;12675;0;0;0;0;5;0;36883;2;0;0;0;0;0;6;0;28488;2;0;0;0;0;0;7;0;21718;0;0;0;0;8;0;21306;0;0;0;0;9;0;11773;0;0;0;0
30.10.18;21:00:00;1;361;8751;0;2;0;12021;0;0;0;0;3;0;8209;0;0;0;0;4;0;12675;0;0;0;0;5;0;36883;2;0;0;0;0;0;6;0;28488;2;0;0;0;0;0;7;0;21718;0;0;0;0;8;0;21306;0;0;0;0;9;0;11773;0;0;0;0
30.10.18;20:55:00;1;394;8720;0;2;0;12021;0;0;0;0;3;0;8209;0;0;0;0;4;0;12675;0;0;0;0;5;0;36883;2;0;0;0;0;0;6;0;28488;2;0;0;0;0;0;7;0;21718;0;0;0;0;8;0;21306;0;0;0;0;9;0;11773;0;0;0;0
30.10.18;20:50:00;1;352;8687;0;2;0;12021;0;0;0;0;3;0;8209;0;0;0;0;4;0;12675;0;0;0;0;5;0;36883;2;0;0;0;0;0;6;0;28488;2;0;0;0;0;0;7;0;21718;0;0;0;0;8;0;21306;0;0;0;0;9;0;11773;0;0;0;0
30.10.18;20:45:00;1;346;8659;0;2;0;12021;0;0;0;0;3;0;8209;0;0;0;0;4;0;12675;0;0;0;0;5;0;36883;2;0;0;0;0;0;6;0;28488;2;0;0;0;0;0;7;0;21718;0;0;0;0;8;0;21306;0;0;0;0;9;0;11773;0;0;0;0
30.10.18;20:40:00;1;336;8630;0;2;0;12021;0;0;0;0;3;0;8209;0;0;0;0;4;0;12675;0;0;0;0;5;0;36883;2;0;0;0;0;0;6;0;28488;2;0;0;0;0;0;7;0;21718;0;0;0;0;8;0;21306;0;0;0;0;9;0;11773;0;0;0;0
30.10.18;20:35:00;1;318;8602;0;2;0;12021;0;0;0;0;3;0;8209;0;0;0;0;4;0;12675;0;0;0;0;5;0;36883;2;0;0;0;0;0;6;0;28488;2;0;0;0;0;0;7;0;21718;0;0;0;0;8;0;21306;0;0;0;0;9;0;11773;0;0;0;0
30.10.18;20:30:00;1;335;8575;0;2;0;12021;0;0;0;0;3;0;8209;0;0;0;0;4;0;12675;0;0;0;0;5;0;36883;2;0;0;0;0;0;6;0;28488;2;0;0;0;0;0;7;0;21718;0;0;0;0;8;0;21306;0;0;0;0;9;0;11773;0;0;0;0
30.10.18;20:25:00;1;337;8547;0;2;0;12021;0;0;0;0;3;0;8209;0;0;0;0;4;0;12675;0;0;0;0;5;0;36883;2;0;0;0;0;0;6;0;28488;2;0;0;0;0;0;7;0;21718;0;0;0;0;8;0;21306;0;0;0;0;9;0;11773;0;0;0;0
30.10.18;20:20:00;1;336;8519;0;2;0;12021;0;0;0;0;3;0;8209;0;0;0;0;4;0;12675;0;0;0;0;5;0;36883;2;0;0;0;0;0;6;0;28488;2;0;0;0;0;0;7;0;21718;0;0;0;0;8;0;21306;0;0;0;0;9;0;11773;0;0;0;0
30.10.18;20:15:00;1;336;8491;0;2;0;12021;0;0;0;0;3;0;8209;0;0;0;0;4;0;12675;0;0;0;0;5;0;36883;2;0;0;0;0;0;6;0;28488;2;0;0;0;0;0;7;0;21718;0;0;0;0;8;0;21306;0;0;0;0;9;0;11773;0;0;0;0
30.10.18;20:10:00;1;384;8463;0;2;0;12021;0;0;0;0;3;0;8209;0;0;0;0;4;0;12675;0;0;0;0;5;0;36883;2;0;0;0;0;0;6;0;28488;2;0;0;0;0;0;7;0;21718;0;0;0;0;8;0;21306;0;0;0;0;9;0;11773;0;0;0;0
30.10.18;20:05:00;1;396;8430;0;2;0;12021;0;0;0;0;3;0;8209;0;0;0;0;4;0;12675;0;0;0;0;5;0;36883;2;0;0;0;0;0;6;0;28488;2;0;0;0;0;0;7;0;21718;0;0;0;0;8;0;21306;0;0;0;0;9;0;11773;0;0;0;0
30.10.18;20:00:00;1;399;8396;0;2;0;12021;0;0;0;0;3;0;8209;0;0;0;0;4;0;12675;0;0;0;0;5;0;36883;2;0;0;0;0;0;6;0;28488;2;0;0;0;0;0;7;0;21718;0;0;0;0;8;0;21306;0;0;0;0;9;0;11773;0;0;0;0
30.10.18;19:55:00;1;400;8362;0;2;0;12021;0;0;0;0;3;0;8209;0;0;0;0;4;0;12675;0;0;0;0;5;0;36883;2;0;0;0;0;0;6;0;28488;2;0;0;0;0;0;7;0;21718;0;0;0;0;8;0;21306;0;0;0;0;9;0;11773;0;0;0;0
30.10.18;19:50:00;1;406;8329;0;2;0;12021;0;0;0;0;3;0;8209;0;0;0;0;4;0;12675;0;0;0;0;5;0;36883;2;0;0;0;0;0;6;0;28488;2;0;0;0;0;0;7;0;21718;0;0;0;0;8;0;21306;0;0;0;0;9;0;11773;0;0;0;0
30.10.18;19:45:00;1;420;8295;0;2;0;12021;0;0;0;0;3;0;8209;0;0;0;0;4;0;12675;0;0;0;0;5;0;36883;2;0;0;0;0;0;6;0;28488;2;0;0;0;0;0;7;0;21718;0;0;0;0;8;0;21306;0;0;0;0;9;0;11773;0;0;0;0
30.10.18;19:40:00;1;378;8264;0;2;0;12021;0;0;0;0;3;0;8209;0;0;0;0;4;0;12675;0;0;0;0;5;0;36883;2;0;0;0;0;0;6;0;28488;2;0;0;0;0;0;7;0;21718;0;0;0;0;8;0;21306;0;0;0;0;9;0;11773;0;0;0;0
30.10.18;19:35:00;1;292;8234;0;2;0;12021;0;0;0;0;3;0;8209;0;0;0;0;4;0;12675;0;0;0;0;5;0;36883;2;0;0;0;0;0;6;0;28488;2;0;0;0;0;0;7;0;21718;0;0;0;0;8;0;21306;0;0;0;0;9;0;11773;0;0;0;0
30.10.18;19:30:00;1;292;8210;0;2;0;12021;0;0;0;0;3;0;8209;0;0;0;0;4;0;12675;0;0;0;0;5;0;36883;2;0;0;0;0;0;6;0;28488;2;0;0;0;0;0;7;0;21718;0;0;0;0;8;0;21306;0;0;0;0;9;0;11773;0;0;0;0
30.10.18;19:25:00;1;303;8186;0;2;0;12021;0;0;0;0;3;0;8209;0;0;0;0;4;0;12675;0;0;0;0;5;0;36883;2;0;0;0;0;0;6;0;28488;2;0;0;0;0;0;7;0;21718;0;0;0;0;8;0;21306;0;0;0;0;9;0;11773;0;0;0;0
30.10.18;19:20:00;1;291;8160;0;2;0;12021;0;0;0;0;3;0;8209;0;0;0;0;4;0;12675;0;0;0;0;5;0;36883;2;0;0;0;0;0;6;0;28488;2;0;0;0;0;0;7;0;21718;0;0;0;0;8;0;21306;0;0;0;0;9;0;11773;0;0;0;0
30.10.18;19:15:00;1;292;8136;0;2;0;12021;0;0;0;0;3;0;8209;0;0;0;0;4;0;12675;0;0;0;0;5;0;36883;2;0;0;0;0;0;6;0;28488;2;0;0;0;0;0;7;0;21718;0;0;0;0;8;0;21306;0;0;0;0;9;0;11773;0;0;0;0
30.10.18;19:10:00;1;350;8111;0;2;0;12021;0;0;0;0;3;0;8209;0;0;0;0;4;0;12675;0;0;0;0;5;0;36883;2;0;0;0;0;0;6;0;28488;2;0;0;0;0;0;7;0;21718;0;0;0;0;8;0;21306;0;0;0;0;9;0;11773;0;0;0;0
30.10.18;19:05:00;1;1645;8082;0;2;0;12021;0;0;0;0;3;0;8209;0;0;0;0;4;0;12675;0;0;0;0;5;0;36883;2;0;0;0;0;0;6;0;28488;2;0;0;0;0;0;7;0;21718;0;0;0;0;8;0;21306;0;0;0;0;9;0;11773;0;0;0;0
30.10.18;19:00:00;1;341;7948;0;2;0;12021;0;0;0;0;3;0;8209;0;0;0;0;4;0;12675;0;0;0;0;5;0;36883;2;0;0;0;0;0;6;0;28488;2;0;0;0;0;0;7;0;21718;0;0;0;0;8;0;21306;0;0;0;0;9;0;11773;0;0;0;0
30.10.18;18:55:00;1;298;7920;0;2;0;12021;0;0;0;0;3;0;8209;0;0;0;0;4;0;12675;0;0;0;0;5;0;36883;2;0;0;0;0;0;6;0;28488;2;0;0;0;0;0;7;0;21718;0;0;0;0;8;0;21306;0;0;0;0;9;0;11773;0;0;0;0
30.10.18;18:50:00;1;295;7895;0;2;0;12021;0;0;0;0;3;0;8209;0;0;0;0;4;0;12675;0;0;0;0;5;0;36883;2;0;0;0;0;0;6;0;28488;2;0;0;0;0;0;7;0;21718;0;0;0;0;8;0;21306;0;0;0;0;9;0;11773;0;0;0;0
30.10.18;18:45:00;1;291;7870;0;2;0;12021;0;0;0;0;3;0;8209;0;0;0;0;4;0;12675;0;0;0;0;5;0;36883;2;0;0;0;0;0;6;0;28488;2;0;0;0;0;0;7;0;21718;0;0;0;0;8;0;21306;0;0;0;0;9;0;11773;0;0;0;0
30.10.18;18:40:00;1;574;7846;0;2;0;12021;0;0;0;0;3;0;8209;0;0;0;0;4;0;12675;0;0;0;0;5;0;36883;2;0;0;0;0;0;6;0;28488;2;0;0;0;0;0;7;0;21718;0;0;0;0;8;0;21306;0;0;0;0;9;0;11773;0;0;0;0
30.10.18;18:35:00;1;505;7778;0;2;0;12021;0;0;0;0;3;0;8209;0;0;0;0;4;0;12675;0;0;0;0;5;0;36883;2;0;0;0;0;0;6;0;28488;2;0;0;0;0;0;7;0;21718;0;0;0;0;8;0;21306;0;0;0;0;9;0;11773;0;0;0;0
30.10.18;18:30:00;1;372;7744;0;2;0;12021;0;0;0;0;3;0;8209;0;0;0;0;4;0;12675;0;0;0;0;5;0;36883;2;0;0;0;0;0;6;0;28488;2;0;0;0;0;0;7;0;21718;0;0;0;0;8;0;21306;0;0;0;0;9;0;11773;0;0;0;0
30.10.18;18:25:00;1;378;7713;0;2;0;12021;0;0;0;0;3;0;8209;0;0;0;0;4;0;12675;0;0;0;0;5;0;36883;2;0;0;0;0;0;6;0;28488;2;0;0;0;0;0;7;0;21718;0;0;0;0;8;0;21306;0;0;0;0;9;0;11773;0;0;0;0
30.10.18;18:20:00;1;398;7681;0;2;0;12021;0;0;0;0;3;0;8209;0;0;0;0;4;0;12675;0;0;0;0;5;0;36883;2;0;0;0;0;0;6;0;28488;2;0;0;0;0;0;7;0;21718;0;0;0;0;8;0;21306;0;0;0;0;9;0;11773;0;0;0;0
30.10.18;18:15:00;1;1218;7633;0;2;0;12021;0;0;0;0;3;0;8209;0;0;0;0;4;0;12675;0;0;0;0;5;0;36883;2;0;0;0;0;0;6;0;28488;2;0;0;0;0;0;7;0;21718;0;0;0;0;8;0;21306;0;0;0;0;9;0;11773;0;0;0;0
30.10.18;18:10:00;1;473;7537;0;2;0;12021;0;0;0;0;3;0;8209;0;0;0;0;4;0;12675;0;0;0;0;5;0;36883;2;0;0;0;0;0;6;0;28488;2;0;0;0;0;0;7;0;21718;0;0;0;0;8;0;21306;0;0;0;0;9;0;11773;0;0;0;0
30.10.18;18:05:00;1;435;7498;0;2;0;12021;0;0;0;0;3;0;8209;0;0;0;0;4;0;12675;0;0;0;0;5;0;36883;2;0;0;0;0;0;6;0;28488;2;0;0;0;0;0;7;0;21718;0;0;0;0;8;0;21306;0;0;0;0;9;0;11773;0;0;0;0
30.10.18;18:00:00;1;467;7461;0;2;0;12021;0;0;0;0;3;0;8209;0;0;0;0;4;0;12675;0;0;0;0;5;0;36883;2;0;0;0;0;0;6;0;28488;2;0;0;0;0;0;7;0;21718;0;0;0;0;8;0;21306;0;0;0;0;9;0;11773;0;0;0;0
30.10.18;17:55:00;1;675;7422;0;2;0;12021;0;0;0;0;3;0;8209;0;0;0;0;4;0;12675;0;0;0;0;5;0;36883;2;0;0;0;0;0;6;0;28488;2;0;0;0;0;0;7;0;21718;0;0;0;0;8;0;21306;0;0;0;0;9;0;11773;0;0;0;0
30.10.18;17:50:00;1;762;7363;0;2;0;12021;0;0;0;0;3;0;8209;0;0;0;0;4;0;12675;0;0;0;0;5;0;36883;2;0;0;0;0;0;6;0;28488;2;0;0;0;0;0;7;0;21718;0;0;0;0;8;0;21306;0;0;0;0;9;0;11773;0;0;0;0
30.10.18;17:45:00;1;748;7299;0;2;0;12021;0;0;0;0;3;0;8209;0;0;0;0;4;0;12675;0;0;0;0;5;0;36883;2;0;0;0;0;0;6;0;28488;2;0;0;0;0;0;7;0;21718;0;0;0;0;8;0;21306;0;0;0;0;9;0;11773;0;0;0;0
30.10.18;17:40:00;1;783;7237;0;2;0;12021;0;0;0;0;3;0;8209;0;0;0;0;4;0;12675;0;0;0;0;5;0;36883;2;0;0;0;0;0;6;0;28488;2;0;0;0;0;0;7;0;21718;0;0;0;0;8;0;21306;0;0;0;0;9;0;11773;0;0;0;0
30.10.18;17:35:00;1;690;7175;0;2;0;12021;0;0;0;0;3;0;8209;0;0;0;0;4;0;12675;0;0;0;0;5;0;36883;2;0;0;0;0;0;6;0;28488;2;0;0;0;0;0;7;0;21718;0;0;0;0;8;0;21306;0;0;0;0;9;0;11773;0;0;0;0
30.10.18;17:30:00;1;711;7117;0;2;0;12021;0;0;0;0;3;0;8209;0;0;0;0;4;0;12675;0;0;0;0;5;0;36883;2;0;0;0;0;0;6;0;28488;2;0;0;0;0;0;7;0;21718;0;0;0;0;8;0;21306;0;0;0;0;9;0;11773;0;0;0;0
30.10.18;17:25:00;1;606;7057;0;2;0;12021;0;0;0;0;3;0;8209;0;0;0;0;4;0;12675;0;0;0;0;5;0;36883;2;0;0;0;0;0;6;0;28488;2;0;0;0;0;0;7;0;21718;0;0;0;0;8;0;21306;0;0;0;0;9;0;11773;0;0;0;0
30.10.18;17:20:00;1;1389;7007;0;2;0;12021;0;0;0;0;3;0;8209;0;0;0;0;4;0;12675;0;0;0;0;5;0;36883;2;0;0;0;0;0;6;0;28488;2;0;0;0;0;0;7;0;21718;0;0;0;0;8;0;21306;0;0;0;0;9;0;11773;0;0;0;0
30.10.18;17:15:00;1;714;6896;0;2;0;12021;0;0;0;0;3;0;8209;0;0;84;7;4;0;12675;0;0;0;0;5;0;36883;2;0;0;0;0;0;6;0;28488;2;0;0;0;0;0;7;0;21718;0;0;0;0;8;0;21306;0;0;0;0;9;0;11773;0;0;0;0
30.10.18;17:10:00;1;2673;6805;0;2;0;12021;0;0;235;16;3;0;8209;6;0;302;22;4;0;12675;0;0;18;5;5;0;36883;2;0;0;0;0;0;6;0;28488;2;0;0;0;0;0;7;0;21718;0;0;0;0;8;0;21306;0;0;0;0;9;0;11773;0;0;0;0
30.10.18;17:05:00;1;1757;6623;0;2;0;12021;6;0;307;19;3;0;8209;6;0;363;22;4;0;12675;2;0;84;20;5;0;36883;2;0;1;150;149;14;6;0;28488;2;0;0;0;0;0;7;0;21718;0;0;0;0;8;0;21306;0;0;0;0;9;0;11773;0;0;0;0
30.10.18;17:00:00;1;1500;6443;0;2;0;12021;6;0;348;20;3;0;8209;6;1;416;22;4;0;12675;1;0;131;20;5;0;36883;2;0;0;304;302;24;6;0;28488;23;8;0;250;389;27;7;0;21718;0;0;194;14;8;0;21306;0;0;194;14;9;0;11773;0;0;247;15
30.10.18;16:55:00;1;872;6314;0;2;0;12021;6;0;371;20;3;0;8209;6;2;425;22;4;0;12675;1;0;170;20;5;0;36883;26;0;0;401;523;30;6;0;28488;23;12;0;181;532;28;7;0;21718;6;0;339;22;8;0;21306;6;0;342;22;9;0;11773;6;0;358;18
30.10.18;16:50:00;1;694;6251;0;2;0;12021;6;0;388;20;3;0;8209;6;3;472;22;4;0;12675;1;0;204;21;5;7;36883;1;0;1;405;636;30;6;0;28488;23;9;0;285;561;28;7;0;21718;6;0;398;23;8;0;21306;6;0;393;22;9;0;11773;6;0;416;19
30.10.18;16:45:00;1;494;6199;0;2;0;12021;6;0;404;20;3;2;8208;6;5;490;23;4;0;12675;3;0;214;21;5;54;36883;1;1;12;375;598;31;6;0;28488;23;9;0;462;577;29;7;0;21718;6;3;407;23;8;0;21306;3;3;412;23;9;0;11773;6;2;461;19
30.10.18;16:40:00;1;523;6157;0;2;3;12021;6;8;403;20;3;2;8208;6;5;505;23;4;0;12675;3;0;219;22;5;80;36878;4;7;25;364;580;32;6;0;28488;23;10;0;523;585;30;7;0;21717;6;4;446;23;8;2;21306;6;4;449;23;9;0;11773;6;2;493;19
30.10.18;16:35:00;1;1522;6106;0;2;13;12021;6;26;392;21;3;3;8208;3;15;478;23;4;0;12675;3;0;217;22;5;94;36871;4;17;30;364;580;32;6;41;28488;1;16;5;472;330;31;7;0;21717;6;5;454;23;8;1;21305;6;5;455;23;9;0;11773;6;0;528;19
30.10.18;16:30:00;1;307;5994;0;2;20;12020;6;36;388;21;3;3;8208;6;8;518;23;4;0;12675;3;0;215;22;5;112;36863;4;29;37;364;580;32;6;61;28484;4;52;20;438;266;31;7;3;21717;6;14;445;24;8;1;21305;6;7;467;23;9;3;11773;4;8;491;20
30.10.18;16:25:00;1;346;5968;0;2;48;12018;4;82;369;21;3;4;8207;6;11;520;23;4;8;12675;3;8;199;23;5;132;36854;4;36;48;364;580;32;6;74;28478;4;66;27;438;266;31;7;0;21717;6;0;496;24;8;4;21305;6;10;472;24;9;0;11773;6;0;218;8
30.10.18;16:20:00;1;304;5941;0;2;51;12014;4;84;365;21;3;8;8207;6;18;499;23;4;16;12674;3;16;199;23;5;145;36843;4;41;54;364;580;32;6;79;28472;4;53;24;438;266;31;7;11;21717;3;19;453;24;8;0;21305;0;0;250;12;9;5;11773;6;11;499;20
30.10.18;16:15:00;1;319;5915;0;2;69;12010;4;103;359;21;3;6;8207;6;13;527;23;4;25;12673;3;26;198;23;5;179;36830;4;67;68;364;580;32;6;97;28465;4;71;35;438;266;31;7;49;21716;4;75;390;25;8;43;21305;4;76;395;24;9;4;11772;6;10;530;20
30.10.18;16:10:00;1;287;5890;0;2;101;12004;4;135;368;22;3;48;8206;6;76;461;24;4;60;12671;3;62;198;23;5;245;36815;4;99;103;364;580;33;6;133;28457;4;86;41;438;266;32;7;62;21712;4;89;338;20;8;77;21301;4;116;413;25;9;7;11772;6;11;547;21
30.10.18;16:05:00;1;283;5866;0;2;142;11996;4;178;371;22;3;82;8202;4;119;477;24;4;94;12666;3;98;207;24;5;320;36794;4;143;131;364;580;33;6;168;28446;4;104;55;438;266;32;7;129;21706;4;157;389;25;8;124;21295;4;160;431;25;9;55;11771;6;78;488;21
30.10.18;16:00:00;1;2019;5842;0;2;177;11984;4;215;374;22;3;103;8195;4;145;485;24;4;127;12658;5;133;224;24;5;380;36767;4;171;163;372;580;33;6;215;28432;4;148;92;454;304;32;7;161;21695;4;199;405;25;8;162;21285;4;194;397;25;9;87;11767;4;115;467;22
30.10.18;15:55:00;1;2327;5653;0;2;213;11969;4;256;385;22;3;129;8187;4;169;494;24;4;161;12647;5;167;223;24;5;461;36735;4;212;191;400;601;33;6;345;28413;4;188;171;561;515;32;7;206;21682;4;235;417;25;8;201;21271;4;241;437;25;9;107;11760;4;138;498;22
30.10.18;15:50:00;1;1633;5458;0;2;261;11952;4;302;386;23;3;158;8176;4;196;499;24;4;207;12634;5;215;226;24;5;560;36696;4;268;240;396;620;33;6;425;28384;4;242;230;565;544;32;7;157;21665;4;186;296;16;8;254;21254;4;288;449;25;9;130;11751;4;165;511;22
30.10.18;15:45:00;1;2307;5305;0;2;320;11930;4;367;392;23;3;197;8163;4;238;488;25;4;268;12617;5;279;231;25;5;685;36649;4;328;292;403;631;33;6;511;28348;4;273;260;578;549;32;7;316;21645;4;359;443;25;8;308;21233;4;359;464;25;9;167;11740;4;202;502;22
30.10.18;15:40:00;1;1629;5113;0;2;368;11903;4;415;393;23;3;225;8147;4;272;496;25;4;303;12595;5;315;233;25;5;740;36591;4;362;316;408;631;33;6;561;28304;4;280;270;572;559;32;7;364;21618;4;404;472;26;8;372;21208;4;417;459;25;9;197;11726;4;235;506;22
30.10.18;15:35:00;1;233;5010;0;2;306;11873;4;351;395;23;3;190;8128;4;231;497;25;4;250;12569;5;261;228;25;5;620;36530;4;293;265;396;617;33;6;477;28258;4;255;242;562;553;32;7;301;21588;4;357;472;26;8;316;21177;4;358;472;26;9;172;11710;4;207;510;23
30.10.18;15:30:00;1;487;4991;0;2;275;11847;4;319;388;23;3;167;8112;4;212;480;25;4;224;12548;5;233;225;25;5;592;36478;4;275;252;392;618;34;6;451;28219;4;228;212;580;553;33;7;283;21563;4;324;451;26;8;275;21150;4;323;467;26;9;152;11696;4;184;492;23
30.10.18;15:25:00;1;1019;4938;0;2;325;11824;4;369;393;24;3;198;8098;4;242;489;25;4;265;12530;5;275;233;26;5;695;36428;4;330;298;394;632;34;6;523;28181;4;280;265;582;555;33;7;324;21539;4;361;452;26;8;322;21127;4;361;447;26;9;168;11683;4;204;487;23
30.10.18;15:20:00;1;356;4853;0;2;418;11797;4;468;396;24;3;258;8081;4;307;503;26;4;347;12508;5;362;235;26;5;848;36369;4;416;363;408;638;34;6;640;28137;4;320;314;573;560;33;7;422;21512;4;459;457;26;8;355;21094;0;394;368;21;9;224;11669;4;261;514;23
30.10.18;15:15:00;1;1093;4824;0;2;429;11763;4;477;393;24;3;268;8060;4;314;502;26;4;353;12479;5;368;232;26;5;827;36298;4;394;358;412;627;34;6;631;28083;4;315;308;572;564;33;7;459;21477;4;496;464;26;8;461;21066;4;509;464;26;9;246;11650;4;288;513;24
30.10.18;15:10:00;1;2267;4732;0;2;379;11727;4;428;392;24;3;235;8038;4;281;495;26;4;311;12449;5;324;233;26;5;755;36229;4;367;321;402;630;35;6;574;28031;4;301;289;572;560;33;7;402;21439;4;443;437;27;8;402;21029;4;452;468;26;9;215;11630;4;255;506;24
30.10.18;15:05:00;1;2310;4543;0;2;412;11695;4;461;396;24;3;254;8018;4;302;488;26;4;347;12423;5;361;229;27;5;856;36166;4;414;364;406;640;35;6;647;27983;4;357;338;572;551;34;7;441;21405;4;478;444;27;8;343;20995;4;380;368;21;9;233;11612;4;269;505;24
30.10.18;15:00:00;1;2501;4350;0;2;493;11661;4;542;392;25;3;304;7997;4;352;501;26;4;419;12395;5;436;235;27;5;1012;36093;4;508;439;411;660;35;6;778;27928;4;410;393;585;557;34;7;502;21368;4;547;456;27;8;508;20959;4;552;468;27;9;268;11592;4;310;519;24
30.10.18;14:55:00;1;1958;4142;0;2;563;11620;4;618;397;25;3;351;7972;4;402;497;27;4;479;12360;5;499;236;27;5;1122;36008;4;570;482;414;640;35;6;864;27863;4;443;432;585;559;34;7;590;21328;4;628;471;27;8;580;20917;4;632;476;27;9;312;11570;4;355;514;25
30.10.18;14:50:00;1;264;4003;0;2;532;11574;4;584;400;25;3;332;7943;4;383;502;27;4;453;12320;5;472;236;27;5;1056;35914;4;523;451;413;649;36;6;800;27791;4;396;377;582;562;34;7;555;21279;4;608;471;28;8;558;20869;4;609;465;27;9;301;11544;4;345;518;25
30.10.18;14:45:00;1;220;3980;0;2;476;11529;4;526;392;25;3;298;7915;4;345;502;27;4;396;12283;5;412;237;28;5;952;35827;4;465;404;415;650;36;6;729;27725;4;371;354;577;560;34;7;496;21232;4;531;462;28;8;286;20803;0;319;279;16;9;268;11519;4;308;510;25
30.10.18;14:40:00;1;220;3962;0;2;417;11489;4;469;391;25;3;262;7890;4;307;489;27;4;349;12250;5;363;233;28;5;845;35749;4;404;359;407;640;36;6;638;27665;4;337;320;568;559;34;7;417;21191;4;462;471;28;8;422;20781;4;466;463;28;9;226;11497;4;265;504;25
30.10.18;14:35:00;1;219;3944;0;2;346;11455;4;391;390;26;3;216;7868;4;259;499;27;4;285;12221;5;297;231;28;5;712;35679;4;339;302;406;638;36;6;548;27612;4;341;311;562;546;35;7;336;21156;4;383;467;28;8;348;20746;4;392;467;28;9;188;11478;4;227;497;26
30.10.18;14:30:00;1;220;3925;0;2;309;11425;4;355;392;26;3;191;7850;4;231;471;27;4;255;12197;5;265;226;29;5;687;35621;4;321;290;404;632;36;6;510;27568;4;288;269;573;552;35;7;279;21128;4;326;451;29;8;280;20716;4;329;457;28;9;126;11462;4;156;418;21
30.10.18;14:25:00;1;220;3907;0;2;365;11400;4;410;392;27;3;224;7834;4;269;486;28;4;304;12175;5;317;228;29;5;814;35564;4;380;351;402;638;37;6;601;27525;4;317;294;569;557;35;7;344;21104;4;378;462;29;8;341;20693;4;383;460;29;9;183;11450;4;219;507;27
30.10.18;14:20:00;1;237;3888;0;2;508;11369;4;560;390;27;3;312;7815;4;363;489;28;4;430;12150;5;448;235;30;5;1079;35495;4;530;460;410;654;37;6;818;27473;4;445;427;580;565;35;7;507;21076;4;552;454;29;8;510;20664;4;559;460;29;9;270;11434;4;312;516;27
30.10.18;14:15:00;1;280;3868;0;2;597;11328;4;655;397;28;3;373;7790;4;425;507;29;4;507;12115;5;528;236;30;5;1217;35405;4;611;516;409;641;37;6;929;27404;4;490;490;587;562;35;7;622;21034;4;673;472;30;8;624;20623;4;678;468;29;9;334;11413;4;379;514;28
30.10.18;14:10:00;1;336;3845;0;2;637;11278;4;695;401;29;3;400;7759;4;455;508;29;4;545;12073;5;568;238;31;5;1282;35303;4;629;549;414;660;38;6;978;27326;4;513;484;588;566;35;7;684;20983;4;739;471;30;8;686;20571;4;738;463;30;9;369;11385;4;418;514;28